Regional Weather Roundup
Issued by NWS

Home | Current Version | Previous Version | Graphics & Text | Print | Product List | Glossary On
Versions: 1 2 3 4 5 6 7 8 9 10 11 12 13 14 15 16 17 18 19 20 21 22 23 24 25 26 27 28 29 30 31 32 33 34 35 36 37 38 39 40 41 42 43 44 45 46 47 48 49 50
454
ASUS43 KLSX 111007
RWRMO

WEATHER SUMMARY FOR MISSOURI
NATIONAL WEATHER SERVICE SPRINGFIELD MO
400 AM CST MON DEC 11 2017

NOTE: "FAIR" INDICATES FEW OR NO CLOUDS BELOW 12,000 FEET WITH NO
       SIGNIFICANT WEATHER AND/OR OBSTRUCTIONS TO VISIBILITY.
       CURRENT SKY AND/OR WEATHER CONDITIONS ARE NOT AVAILABLE FOR
       CHILLICOTHE AND FARMINGTON.

MOZ001>031-035>038-043-044-053-054-111100-
...NORTHERN AND WESTERN MISSOURI...

CITY           SKY/WX    TMP DP  RH WIND       PRES   REMARKS
KANSAS CTY INT CLEAR     35  20  54 SW9       30.00F WCI  28
KANSAS C DTWN  CLEAR     33  26  75 CALM      30.00F
LEE`S SUMMIT   CLEAR     40  20  44 SW8       30.00F
ST JOSEPH      PTCLDY    25  22  88 SE5       30.00F WCI  19
CHILLICOTHE      N/A     29  23  78 CALM      29.99F
KIRKSVILLE     PTCLDY    33  27  78 SW6       29.97F WCI  28

$$
MOZ066>068-077>081-088>096-101>105-111100-
...SOUTHWEST MISSOURI...

CITY           SKY/WX    TMP DP  RH WIND       PRES   REMARKS
SPRINGFIELD    CLEAR     32  23  69 S8        30.09F WCI  25
JOPLIN         CLEAR     36  24  62 S6        30.12F

$$
MOZ032>034-039>042-045>050-055>058-069>072-111100-
...CENTRAL MISSOURI...

CITY           SKY/WX    TMP DP  RH WIND       PRES   REMARKS
COLUMBIA       CLEAR     35  25  66 S6        30.03F
JEFFERSON CITY CLEAR     33  25  72 E6        30.05F WCI  28
ROLLA          CLEAR     35  25  66 SW13      30.06F WCI  26
SEDALIA        CLEAR     40  27  59 SW14      30.03F
WHITEMAN AFB   CLEAR     31  23  70 S9        29.98F WCI  23
WARRENSBURG    CLEAR     32  23  69 S7        30.01F WCI  26
OSAGE BEACH    CLEAR     28  24  85 SE3       30.07

$$
MOZ051-052-059>065-111100-
...EAST CENTRAL MISSOURI...

CITY           SKY/WX    TMP DP  RH WIND       PRES   REMARKS
ST LOUIS INTL  PTCLDY    30  25  81 CALM      30.07F
SPIRIT OF STL  CLEAR     24  22  91 CALM      30.06F
ST CHARLES     CLEAR     25  22  88 E5        30.06F WCI  19

$$
MOZ072>076-082>087-097>100-106>115-111100-
...SOUTH CENTRAL AND SOUTHEAST MISSOURI...

CITY           SKY/WX    TMP DP  RH WIND       PRES   REMARKS
CAPE GIRARDEAU CLEAR     26  23  88 CALM      30.12F
FARMINGTON     CLEAR     32  24  72 CALM      30.09F
POPLAR BLUFF   CLEAR     30  26  85 CALM      30.13F
WEST PLAINS    CLEAR     34  23  64 SW6       30.12F WCI  29

$$



USA.gov is the U.S. government's official web portal to all federal, state and local government web resources and services.